Weather History for Gunnison, CO

Change the Weather History Date:

Monday, February 18, 2013

  Actual Average Record
Temperature  
Mean Temperature 14 °F -  
Max Temperature 28 °F 29 °F 48 °F (2002)
Min Temperature 1 °F 6 °F -11 °F (2008)
Degree Days  
Heating Degree Days 50    
Moisture  
Dew Point 5 °F    
Average Humidity 57    
Maximum Humidity 86    
Minimum Humidity 29    
Precipitation  
Precipitation 0.00 in - - ()
Sea Level Pressure  
Sea Level Pressure 30.03 in    
Wind  
Wind Speed 8 mph (West)    
Max Wind Speed 15 mph    
Max Gust Speed 22 mph    
Visibility 10 miles    
Events      
Averages and records for this station are not official NWS values.
T = Trace of Precipitation, MM = Missing Value Source: NWS Daily Summary

Daily Weather History Graph

Daily Weather History Graph

Search for Another Location

Airport:

Trip Planner

Search our weather history database for the weather conditions in past years. The results will help you decide how hot, cold, wet, or windy it might be!

Date:

Astronomy

Feb. 18, 2013 Rise Set
Actual Time 6:54 AM MST 5:49 PM MST
Civil Twilight 6:27 AM MST 6:16 PM MST
Nautical Twilight 5:56 AM MST 6:47 PM MST
Astronomical Twilight 5:25 AM MST 7:18 PM MST
Moon 11:39 AM MST (2/18) 1:34 AM MST (2/18)
Length of Visible Light 11h 49m
Length of Day
10h 55m
First Quarter, 59% of the Moon is Illuminated
Feb 18
First Quarter
Feb 25
Full
Mar 4
Last Quarter
Mar 11
New
Mar 19
First Quarter

Hourly Weather History & Observations

Time (MST) Temp. Windchill Dew Point Humidity Pressure Visibility Wind Dir Wind Speed Gust Speed Precip Events Conditions
12:35 AM 24.8 °F 12.4 °F 21.2 °F 86% 29.79 in 8.0 mi SW 15.0 mph - N/A   Mostly Cloudy
12:55 AM 24.8 °F 14.6 °F 21.2 °F 86% 29.79 in 10.0 mi SW 10.4 mph - N/A   Partly Cloudy
1:15 AM 24.8 °F 12.4 °F 19.4 °F 80% 29.79 in 10.0 mi SW 15.0 mph 18.4 mph N/A   Scattered Clouds
1:35 AM 24.8 °F 12.9 °F 17.6 °F 74% 29.80 in 10.0 mi SW 13.8 mph 21.9 mph N/A   Partly Cloudy
1:55 AM 24.8 °F 14.6 °F 15.8 °F 69% 29.82 in 10.0 mi NNE 10.4 mph 18.4 mph N/A   Mostly Cloudy
2:15 AM 23.0 °F 18.4 °F 12.2 °F 63% 29.83 in 10.0 mi South 3.5 mph - N/A   Overcast
2:35 AM 21.2 °F - 14.0 °F 74% 29.84 in 10.0 mi Calm Calm - N/A   Mostly Cloudy
2:55 AM 21.2 °F 13.6 °F 12.2 °F 68% 29.85 in 10.0 mi NNW 5.8 mph - N/A   Mostly Cloudy
3:15 AM 19.4 °F 8.6 °F 14.0 °F 80% 29.86 in 10.0 mi WSW 9.2 mph - N/A   Overcast
3:35 AM 19.4 °F 7.2 °F 14.0 °F 80% 29.87 in 10.0 mi WSW 11.5 mph 17.3 mph N/A   Mostly Cloudy
3:55 AM 19.4 °F 7.9 °F 12.2 °F 74% 29.89 in 10.0 mi SW 10.4 mph 19.6 mph N/A   Overcast
4:35 AM 17.6 °F 7.3 °F 12.2 °F 79% 29.91 in 10.0 mi West 8.1 mph - N/A   Mostly Cloudy
5:15 AM 17.6 °F 8.2 °F 8.6 °F 68% 29.94 in 10.0 mi WNW 6.9 mph - N/A   Clear
5:35 AM 15.8 °F 6.1 °F 10.4 °F 79% 29.95 in 10.0 mi West 6.9 mph - N/A   Clear
5:55 AM 15.8 °F 4.2 °F 8.6 °F 73% 29.96 in 10.0 mi West 9.2 mph - N/A   Clear
6:15 AM 14.0 °F 2.0 °F 6.8 °F 73% 29.97 in 10.0 mi West 9.2 mph - N/A   Clear
6:35 AM 15.8 °F 6.1 °F 8.6 °F 73% 29.99 in 10.0 mi WNW 6.9 mph - N/A   Clear
6:55 AM 15.8 °F - 10.4 °F 79% 30.01 in 10.0 mi Calm Calm - N/A   Clear
7:15 AM 12.2 °F - -0.4 °F 57% 30.02 in 10.0 mi Calm Calm - N/A   Clear
7:35 AM 10.4 °F 2.2 °F 5.0 °F 79% 30.03 in 10.0 mi NW 4.6 mph - N/A   Clear
7:55 AM 10.4 °F - -2.2 °F 57% 30.04 in 10.0 mi Calm Calm - N/A   Clear
8:15 AM 12.2 °F 6.1 °F 3.2 °F 67% 30.05 in 10.0 mi North 3.5 mph - N/A   Clear
8:35 AM 15.8 °F - 8.6 °F 73% 30.06 in 10.0 mi Calm Calm - N/A   Clear
8:55 AM 15.8 °F 10.2 °F 1.4 °F 53% 30.07 in 10.0 mi SSE 3.5 mph - N/A   Clear
9:15 AM 15.8 °F - 6.8 °F 68% 30.07 in 10.0 mi Calm Calm - N/A   Clear
9:35 AM 17.6 °F 12.3 °F 10.4 °F 73% 30.08 in 10.0 mi SE 3.5 mph - N/A   Clear
9:55 AM 19.4 °F 14.3 °F 8.6 °F 63% 30.07 in 10.0 mi NE 3.5 mph - N/A   Clear
10:15 AM 21.2 °F - 6.8 °F 54% 30.08 in 10.0 mi Calm Calm - N/A   Clear
10:35 AM 21.2 °F 12.6 °F 5.0 °F 50% 30.08 in 10.0 mi SW 6.9 mph - N/A   Clear
10:55 AM 21.2 °F 16.4 °F 8.6 °F 58% 30.08 in 10.0 mi SW 3.5 mph - N/A   Clear
11:15 AM 23.0 °F 14.7 °F 6.8 °F 50% 30.08 in 10.0 mi SSW 6.9 mph - N/A   Clear
11:35 AM 23.0 °F 17.0 °F 5.0 °F 46% 30.08 in 10.0 mi SSW 4.6 mph - N/A   Clear
11:55 AM 24.8 °F 16.9 °F 8.6 °F 50% 30.07 in 10.0 mi WSW 6.9 mph - N/A   Clear
12:15 PM 24.8 °F 14.0 °F 3.2 °F 40% 30.07 in 10.0 mi West 11.5 mph - N/A   Clear
12:35 PM 26.6 °F 16.2 °F 6.8 °F 43% 30.06 in 10.0 mi West 11.5 mph - N/A   Clear
12:55 PM 26.6 °F 14.7 °F 6.8 °F 43% 30.06 in 10.0 mi West 15.0 mph - N/A   Clear
1:15 PM 26.6 °F 19.1 °F 3.2 °F 37% 30.06 in 10.0 mi West 6.9 mph 17.3 mph N/A   Clear
1:55 PM 26.6 °F 19.1 °F 6.8 °F 43% 30.05 in 10.0 mi WSW 6.9 mph - N/A   Clear
2:15 PM 28.4 °F 18.0 °F 1.4 °F 31% 30.05 in 10.0 mi WSW 12.7 mph 17.3 mph N/A   Clear
2:35 PM 28.4 °F 19.1 °F 1.4 °F 31% 30.05 in 10.0 mi SW 10.4 mph - N/A   Clear
2:55 PM 28.4 °F 18.5 °F 1.4 °F 31% 30.05 in 10.0 mi WSW 11.5 mph 17.3 mph N/A   Clear
3:15 PM 28.4 °F 18.0 °F 1.4 °F 31% 30.06 in 10.0 mi WSW 12.7 mph 17.3 mph N/A   Clear
3:35 PM 28.4 °F 18.5 °F -0.4 °F 29% 30.06 in 10.0 mi SW 11.5 mph - N/A   Clear
4:15 PM 28.4 °F 19.7 °F -0.4 °F 29% 30.07 in 10.0 mi WSW 9.2 mph 17.3 mph N/A   Clear
4:35 PM 28.4 °F 20.4 °F -0.4 °F 29% 30.07 in 10.0 mi West 8.1 mph - N/A   Clear
4:55 PM 28.4 °F 23.3 °F 3.2 °F 34% 30.08 in 10.0 mi WNW 4.6 mph - N/A   Clear
5:15 PM 26.6 °F 20.0 °F 3.2 °F 37% 30.08 in 10.0 mi NNW 5.8 mph - N/A   Clear
5:35 PM 24.8 °F 17.9 °F 1.4 °F 36% 30.08 in 10.0 mi NNW 5.8 mph - N/A   Clear
5:55 PM 23.0 °F 13.1 °F 3.2 °F 43% 30.09 in 10.0 mi NNW 9.2 mph - N/A   Clear
6:15 PM 19.4 °F 14.3 °F 1.4 °F 46% 30.10 in 10.0 mi NNW 3.5 mph - N/A   Clear
6:35 PM 19.4 °F 11.5 °F 3.2 °F 49% 30.11 in 10.0 mi NW 5.8 mph - N/A   Clear
6:55 PM 19.4 °F 14.3 °F 1.4 °F 46% 30.11 in 10.0 mi NNE 3.5 mph - N/A   Clear
7:15 PM 12.2 °F 2.9 °F -2.2 °F 53% 30.12 in 10.0 mi SE 5.8 mph - N/A   Clear
7:35 PM 15.8 °F - 6.8 °F 68% 30.12 in 10.0 mi Calm Calm - N/A   Clear
7:55 PM 15.8 °F - -4.0 °F 41% 30.12 in 10.0 mi Calm Calm - N/A   Clear
8:15 PM 12.2 °F - -0.4 °F 57% 30.12 in 10.0 mi Calm Calm - N/A   Clear
8:35 PM 10.4 °F 4.0 °F -2.2 °F 57% 30.12 in 10.0 mi East 3.5 mph - N/A   Clear
8:55 PM 6.8 °F -2.0 °F -5.8 °F 56% 30.13 in 10.0 mi East 4.6 mph - N/A   Clear
9:15 PM 8.6 °F -1.3 °F -4.0 °F 57% 30.14 in 10.0 mi ENE 5.8 mph - N/A   Clear
9:35 PM 8.6 °F -1.3 °F -2.2 °F 62% 30.14 in 10.0 mi NE 5.8 mph - N/A   Clear
9:55 PM 6.8 °F - -9.4 °F 48% 30.14 in 10.0 mi Calm Calm - N/A   Clear
10:15 PM 3.2 °F - -9.4 °F 56% 30.15 in 10.0 mi Calm Calm - N/A   Clear
11:15 PM 1.4 °F -6.2 °F -7.6 °F 66% 30.16 in 10.0 mi East 3.5 mph - N/A   Clear
11:35 PM 1.4 °F - -4.0 °F 78% 30.16 in 10.0 mi Calm Calm - N/A   Clear